Location: Erp
(42.9417°N, 1.2009°E)
Time: 19:29:24
(UTC+00:00)

SJ-7 - Pass Details

Date: 19 April 2026
Orbit: 491 x 514 km, 97.7° (Epoch: 12 May)

Event Time Altitude Azimuth Distance (km) Brightness Sun altitude
Rises 19:26:33 0° 193° (SSW) 2,616 7.7 -8.4°
Reaches altitude 10° 19:28:53 10° 207° (SSW) 1,737 6.9 -8.8°
Maximum altitude 19:32:02 25° 264° (W) 1,061 6.6 -9.3°
Drops below altitude 10° 19:35:13 10° 322° (NW) 1,752 8.0 -9.9°
Sets 19:37:36 0° 335° (NNW) 2,643 8.7 -10.3°
